[[{"header":{"parameterUnit":"m.s-1","parameterCategory":2,"la1":30.2991,"la2":30.254,"lo1":-89.0895,"lo2":-89.0444,"dy":0.0017,"dx":0.0017,"nx":28,"ny":28,"refTime":"2024-07-08T21:00:00:Z","depth":"0","parameterNumber":2,"parameterNumberName":"U-component_of_CURRENTS"},"data":[0,0,0,0,0,0,0,0,0,0,0,0,0,0,0,0,0,0,0,0,0,0,0,0,0,0,0,0,0,0,0,0,0,0,0,0,0,0,0,0,0,0,0,0,0,0,0,0,0,0,0,0,0,0,0,0,0,0,-0.2575,-0.2574,0,-0.2488,-0.2487,-0.2485,-0.2331,-0.2329,-0.2327,-0.2324,-0.213,-0.2127,-0.2124,0,0,0,0,0,0,0,0,0,0,0,0,0,-0.2603,-0.2603,-0.2575,-0.2574,-0.2574,-0.2488,-0.2487,-0.2485,-0.2332,-0.2329,-0.2326,-0.2323,-0.2131,-0.2127,-0.2124,0,0,0,0,0,0,0,0,0,0,0,0,0,-0.2555,-0.2603,-0.2575,-0.2492,-0.2484,-0.2489,-0.2487,-0.2484,-0.2332,-0.2329,-0.2325,-0.2322,-0.2132,-0.2128,-0.2123,-0.2166,0,0,-0.2109,-0.2108,0,0,0,0,0,0,0,0,-0.2558,-0.2553,-0.2504,-0.2497,-0.2489,-0.2422,-0.2426,-0.2375,-0.2333,-0.2383,-0.2324,-0.232,-0.2225,-0.2212,-0.2196,-0.2157,-0.2148,-0.2109,-0.2106,-0.2104,-0.2103,0,0,0,0,0,0,0,-0.2561,-0.2556,-0.2534,-0.2504,-0.2495,-0.2458,-0.2446,-0.2415,-0.2318,-0.2378,-0.2369,-0.237,-0.2218,-0.2201,-0.219,-0.2146,-0.2109,-0.2105,-0.2102,-0.2101,-0.2083,-0.2086,0,0,0,0,0,0,-0.2589,-0.256,-0.2537,-0.2532,-0.2523,-0.2461,-0.2448,-0.2442,-0.232,-0.2301,-0.2374,-0.2364,-0.221,-0.2196,-0.2183,-0.2191,-0.2104,-0.21,-0.2098,-0.2081,-0.2084,-0.2086,0,0,0,0,0,0,-0.259,-0.2588,-0.254,-0.2549,-0.2541,-0.2465,-0.2459,-0.2442,-0.2408,-0.2319,-0.2295,-0.2355,-0.2207,-0.2189,-0.2142,-0.2183,-0.2098,-0.2094,-0.2079,-0.2082,-0.2085,-0.2229,0,0,0,0,0,0,-0.2591,-0.2589,-0.2584,-0.2551,-0.2542,-0.255,-0.2463,-0.2443,-0.2418,-0.2404,-0.2296,-0.2275,-0.2203,-0.2149,-0.2138,-0.2175,-0.2091,-0.2076,-0.208,-0.2084,-0.2221,-0.2236,-0.225,0,0,0,0,0,-0.2592,-0.2605,-0.2584,-0.2581,-0.2541,-0.2552,-0.2544,-0.2473,-0.2421,-0.2424,-0.2339,-0.2277,-0.2168,-0.2147,-0.2133,-0.217,-0.2074,-0.2079,-0.2084,-0.2215,-0.2233,-0.2249,0,0,0,0,0,0,-0.2606,-0.259,-0.2566,-0.2568,-0.2566,-0.2528,-0.2521,-0.2485,-0.2424,-0.2396,-0.2297,-0.2273,-0.2252,-0.2198,-0.2178,-0.218,-0.2115,-0.2118,-0.222,-0.2237,-0.2251,-0.2224,-0.2087,0,0,0,0,0,-0.2616,-0.2613,-0.2608,-0.2606,-0.2613,-0.2571,-0.2561,-0.2527,-0.2479,-0.2447,-0.2375,-0.2306,-0.2271,-0.2239,-0.2196,-0.2196,-0.2126,-0.2215,-0.2229,-0.2242,-0.2212,-0.2195,-0.2205,-0.2103,-0.2103,-0.2103,0,0,-0.2618,-0.261,-0.2605,-0.2609,-0.2593,-0.2607,-0.2553,-0.2554,-0.2548,-0.244,-0.2395,-0.2354,-0.2283,-0.2276,-0.2264,-0.2228,-0.2231,-0.2248,-0.2259,-0.2222,-0.2201,-0.2211,-0.2219,-0.2106,-0.2106,-0.2105,0,0,-0.2632,-0.2623,-0.2629,-0.2645,-0.2647,-0.2632,-0.2641,-0.2618,-0.2585,-0.257,-0.2491,-0.2472,-0.2406,-0.237,-0.2342,-0.2416,-0.2312,-0.2412,-0.2454,-0.244,-0.2448,-0.2453,-0.2361,-0.2358,-0.2415,-0.2415,-0.2416,0,-0.263,-0.2638,-0.2636,-0.2661,-0.267,-0.265,-0.2671,-0.2658,-0.2615,-0.26,-0.2568,-0.2501,-0.2453,-0.2443,-0.2458,-0.2448,-0.2386,-0.2396,-0.2458,-0.2462,-0.2465,-0.2369,-0.2364,-0.2423,-0.2422,-0.2421,-0.2421,0,-0.2644,-0.2667,-0.2683,-0.2696,-0.2713,-0.2735,-0.2739,-0.2737,-0.2707,-0.2686,-0.2676,-0.2628,-0.2576,-0.2591,-0.2533,-0.2548,-0.2477,-0.2484,-0.2412,-0.2484,-0.2378,-0.237,-0.2434,-0.2431,-0.2429,-0.2427,0,0,-0.2596,-0.2673,-0.2675,-0.2696,-0.2736,-0.2745,-0.277,-0.2778,-0.2764,-0.2762,-0.2744,-0.2732,-0.27,-0.2666,-0.2629,-0.2617,-0.2595,-0.2552,-0.2548,-0.2454,-0.2494,-0.2334,-0.2308,-0.2614,-0.2614,-0.2614,-0.2404,0,-0.26,-0.2645,-0.2688,-0.2732,-0.2759,-0.2787,-0.2802,-0.2811,-0.2801,-0.2783,-0.278,-0.2742,-0.2733,-0.27,-0.2704,-0.261,-0.258,-0.2646,-0.2441,-0.2432,-0.2279,-0.2297,-0.2161,-0.1954,-0.2395,-0.2393,-0.2392,0,-0.2588,-0.2623,-0.2666,-0.2743,-0.2756,-0.2776,-0.2788,-0.2808,-0.2812,-0.2803,-0.2805,-0.2768,-0.274,-0.2731,-0.263,-0.2665,-0.2577,-0.252,-0.2512,-0.2296,-0.2257,-0.1957,-0.192,-0.1943,-0.2377,-0.2378,-0.2379,0,-0.2515,-0.2609,-0.2632,-0.2659,-0.2737,-0.2752,-0.278,-0.2798,-0.2792,-0.2797,-0.2761,-0.2764,-0.2698,-0.266,-0.252,-0.257,-0.2377,-0.2441,-0.2214,-0.2199,-0.2003,-0.1971,-0.1953,-0.2368,-0.2369,-0.2369,-0.237,0,-0.2492,-0.2522,-0.2599,-0.2608,-0.2624,-0.2706,-0.2704,-0.2734,-0.2753,-0.2714,-0.2747,-0.2671,-0.2673,-0.2558,-0.2495,-0.2279,-0.2354,-0.2183,-0.2139,-0.2047,-0.2023,-0.1966,-0.201,-0.2361,-0.2363,-0.2365,-0.2366,0,-0.2416,-0.2476,-0.2503,-0.2571,-0.2589,-0.2591,-0.2644,-0.2634,-0.2667,-0.2612,-0.2598,-0.2562,-0.2393,-0.234,-0.2212,-0.2176,-0.1982,-0.1944,-0.1788,-0.1729,-0.1579,-0.1634,-0.1489,-0.1452,-0.1686,-0.168,-0.1676,0,-0.2383,-0.2383,-0.2427,-0.2422,-0.2453,-0.2478,-0.248,-0.2562,-0.2541,-0.2503,-0.2442,-0.2295,-0.2125,-0.1878,-0.1758,-0.1585,-0.1695,-0.1422,-0.1523,-0.1513,-0.1545,-0.1624,-0.1613,-0.1311,-0.1304,-0.1298,-0.1293,0,-0.2297,-0.2298,-0.2303,-0.2285,-0.2289,-0.2303,-0.2315,-0.229,-0.2345,-0.2286,-0.2143,-0.2013,-0.1728,-0.1453,-0.1249,-0.1191,-0.1399,-0.1297,-0.1355,-0.1282,-0.1297,-0.1257,-0.1472,-0.1243,-0.1248,-0.1251,-0.1254,-0.1256,-0.2195,-0.2162,-0.2142,-0.2125,-0.2131,-0.2104,-0.2056,-0.2057,-0.1996,-0.1865,-0.1844,-0.1561,-0.129,-0.0942,-0.0907,-0.0797,-0.0926,-0.084,-0.0907,-0.099,-0.0963,-0.1015,-0.0712,-0.0714,-0.0715,-0.0717,-0.0718,0,-0.2049,-0.2021,-0.1988,-0.1953,-0.1906,-0.1962,-0.1918,-0.1838,-0.1703,-0.1548,-0.1397,-0.0962,-0.0721,-0.0585,-0.0426,-0.0443,-0.0532,-0.0513,-0.0649,-0.066,-0.0736,-0.0733,-0.0338,-0.0338,-0.0338,-0.0338,-0.0338,-0.0338,-0.1953,-0.1868,-0.1852,-0.1735,-0.1715,-0.1598,-0.1543,-0.144,-0.1293,-0.0936,-0.0627,-0.0425,-0.0263,-0.0325,-0.0358,-0.0375,-0.0479,-0.0406,-0.0525,-0.0651,-0.0691,-0.0729,-0.074,-0.0353,-0.0354,-0.0411,-0.0412,-0.0412]},{"header":{"parameterUnit":"m.s-1","parameterCategory":2,"la1":30.2991,"la2":30.254,"lo1":-89.0895,"lo2":-89.0444,"dy":0.0017,"dx":0.0017,"nx":28,"ny":28,"refTime":"2024-07-08T21:00:00:Z","depth":"0","parameterNumber":3,"parameterNumberName":"V-component_of_CURRENTS"},"data":[0,0,0,0,0,0,0,0,0,0,0,0,0,0,0,0,0,0,0,0,0,0,0,0,0,0,0,0,0,0,0,0,0,0,0,0,0,0,0,0,0,0,0,0,0,0,0,0,0,0,0,0,0,0,0,0,0,0,-0.0379,-0.038,0,-0.0431,-0.0431,-0.0432,-0.0459,-0.0459,-0.046,-0.046,-0.0419,-0.0418,-0.0416,0,0,0,0,0,0,0,0,0,0,0,0,0,-0.0189,-0.0193,-0.0379,-0.038,-0.0381,-0.0431,-0.0431,-0.0432,-0.0459,-0.0459,-0.046,-0.046,-0.042,-0.0418,-0.0416,0,0,0,0,0,0,0,0,0,0,0,0,0,-0.0257,-0.0194,-0.0379,-0.0403,-0.0406,-0.0431,-0.0431,-0.0432,-0.0459,-0.0459,-0.046,-0.046,-0.042,-0.0418,-0.0416,-0.0393,0,0,-0.041,-0.0409,0,0,0,0,0,0,0,0,-0.0253,-0.0263,-0.0398,-0.0401,-0.0405,-0.0442,-0.0349,-0.0415,-0.0459,-0.0436,-0.046,-0.0461,-0.042,-0.0418,-0.0423,-0.0391,-0.0389,-0.0409,-0.0408,-0.0407,-0.0407,0,0,0,0,0,0,0,-0.0248,-0.0261,-0.0396,-0.0399,-0.0403,-0.0372,-0.0383,-0.0362,-0.042,-0.0438,-0.0441,-0.0451,-0.042,-0.0425,-0.0422,-0.0389,-0.0409,-0.0408,-0.0406,-0.0405,-0.0336,-0.0336,0,0,0,0,0,0,-0.0255,-0.0257,-0.0395,-0.0398,-0.0332,-0.0376,-0.0388,-0.0427,-0.0422,-0.0424,-0.0451,-0.0452,-0.0429,-0.0425,-0.0421,-0.0405,-0.0407,-0.0405,-0.0404,-0.0337,-0.0336,-0.0335,0,0,0,0,0,0,-0.0251,-0.0268,-0.0393,-0.0329,-0.0343,-0.038,-0.0422,-0.0428,-0.0434,-0.0434,-0.0433,-0.0452,-0.0429,-0.0424,-0.0412,-0.0403,-0.0404,-0.0402,-0.0337,-0.0336,-0.0336,-0.0364,0,0,0,0,0,0,-0.0246,-0.0266,-0.0286,-0.0331,-0.0347,-0.0408,-0.0423,-0.0428,-0.0441,-0.0444,-0.0434,-0.0432,-0.0429,-0.0416,-0.041,-0.04,-0.0401,-0.0338,-0.0337,-0.0336,-0.0364,-0.0364,-0.0365,0,0,0,0,0,-0.0239,-0.0275,-0.0288,-0.0303,-0.0379,-0.0409,-0.0413,-0.0437,-0.0441,-0.0443,-0.0444,-0.0432,-0.0404,-0.0414,-0.0408,-0.0396,-0.0339,-0.0337,-0.0336,-0.0364,-0.0364,-0.0365,0,0,0,0,0,0,-0.0181,-0.0283,-0.0297,-0.0356,-0.0377,-0.0414,-0.0427,-0.0433,-0.0436,-0.0437,-0.0431,-0.0428,-0.0411,-0.0396,-0.0407,-0.0371,-0.0366,-0.0363,-0.0389,-0.0389,-0.039,-0.0415,-0.0399,0,0,0,0,0,-0.0183,-0.0255,-0.0305,-0.0346,-0.0364,-0.0389,-0.0401,-0.0414,-0.0428,-0.0431,-0.0425,-0.0413,-0.0399,-0.0391,-0.0376,-0.0357,-0.0323,-0.0342,-0.0343,-0.0343,-0.0358,-0.0309,-0.0307,-0.0331,-0.0331,-0.0331,0,0,-0.0168,-0.0234,-0.0269,-0.034,-0.0364,-0.0399,-0.0398,-0.0422,-0.0441,-0.0422,-0.0438,-0.0412,-0.0394,-0.0382,-0.0371,-0.037,-0.0309,-0.0342,-0.0343,-0.0358,-0.0308,-0.0306,-0.0304,-0.033,-0.033,-0.0331,0,0,-0.0188,-0.0236,-0.0304,-0.0331,-0.0379,-0.0396,-0.0402,-0.0432,-0.0437,-0.044,-0.0432,-0.0407,-0.0388,-0.0378,-0.0369,-0.0357,-0.0312,-0.034,-0.0365,-0.0317,-0.0315,-0.0313,-0.0231,-0.0221,-0.0341,-0.0341,-0.0342,0,-0.0159,-0.0264,-0.0311,-0.037,-0.0401,-0.0399,-0.0443,-0.0446,-0.0461,-0.0466,-0.0448,-0.0425,-0.039,-0.0392,-0.0381,-0.0359,-0.0315,-0.0368,-0.0319,-0.0317,-0.0314,-0.023,-0.022,-0.0343,-0.0343,-0.0342,-0.0342,0,-0.024,-0.0303,-0.0336,-0.0432,-0.0454,-0.0488,-0.0507,-0.0514,-0.0507,-0.0504,-0.0494,-0.0454,-0.0443,-0.0413,-0.039,-0.036,-0.0325,-0.0324,-0.0323,-0.0314,-0.0225,-0.0213,-0.0344,-0.0344,-0.0344,-0.0343,0,0,-0.0242,-0.0373,-0.0385,-0.0435,-0.0493,-0.0523,-0.0552,-0.0581,-0.0608,-0.0573,-0.0597,-0.0537,-0.0503,-0.049,-0.045,-0.0399,-0.0308,-0.0352,-0.0349,-0.0278,-0.0172,-0.0082,-0.006,-0.0301,-0.03,-0.0299,-0.0105,0,-0.0289,-0.0413,-0.0466,-0.0547,-0.0604,-0.062,-0.0651,-0.0664,-0.0661,-0.067,-0.0612,-0.0602,-0.0538,-0.0523,-0.0463,-0.0348,-0.0285,-0.036,-0.0186,-0.018,-0.0108,-0.0047,0.0003,0.0185,-0.0093,-0.0091,-0.009,0,-0.0369,-0.0441,-0.0542,-0.0633,-0.0658,-0.0694,-0.0757,-0.0781,-0.0781,-0.0775,-0.0753,-0.0705,-0.0618,-0.0573,-0.0378,-0.0426,-0.0305,-0.0213,-0.0204,-0.0111,-0.0069,0.0125,0.0217,0.0294,-0.0071,-0.0073,-0.0074,0,-0.0387,-0.05,-0.0586,-0.0618,-0.0706,-0.0745,-0.0779,-0.0807,-0.0835,-0.0835,-0.0842,-0.0753,-0.0686,-0.0546,-0.0317,-0.0349,-0.009,-0.0114,0.0075,0.0084,0.0165,0.0179,0.0339,0.0003,0.0003,0.0002,0.0002,0,-0.0451,-0.0516,-0.0599,-0.0648,-0.0726,-0.0772,-0.0845,-0.0874,-0.0905,-0.0935,-0.0885,-0.0873,-0.0674,-0.0504,-0.0328,-0.005,-0.0084,0.0089,0.014,0.0162,0.0173,0.0272,0.0275,0.001,0.0008,0.0007,0.0005,0,-0.0483,-0.0542,-0.0636,-0.0723,-0.0747,-0.0802,-0.0885,-0.0936,-0.0957,-0.0999,-0.0995,-0.091,-0.067,-0.0441,-0.0166,-0.0037,0.0278,0.0289,0.0329,0.038,0.0588,0.0587,0.0785,0.0884,0.0507,0.0511,0.0514,0,-0.052,-0.0574,-0.0676,-0.0724,-0.077,-0.0845,-0.09,-0.0952,-0.1001,-0.1019,-0.1031,-0.0838,-0.07,-0.0244,0.0078,0.043,0.0464,0.0619,0.055,0.0631,0.0666,0.0642,0.0707,0.0667,0.0671,0.0674,0.0677,0,-0.0568,-0.0604,-0.0679,-0.0768,-0.0837,-0.0921,-0.0994,-0.1036,-0.1093,-0.1109,-0.1094,-0.0987,-0.0537,-0.0103,0.0383,0.0558,0.0683,0.0692,0.0759,0.0798,0.0798,0.0907,0.0525,0.0705,0.0702,0.07,0.0699,0.0698,-0.0583,-0.0643,-0.073,-0.0816,-0.0902,-0.0991,-0.1041,-0.1107,-0.1161,-0.1157,-0.11,-0.0856,-0.0263,0.0439,0.0609,0.1012,0.0949,0.1072,0.1069,0.1041,0.1116,0.0816,0.1051,0.105,0.105,0.1049,0.1048,0,-0.0585,-0.0667,-0.0765,-0.0878,-0.0971,-0.1004,-0.1101,-0.1128,-0.117,-0.1069,-0.1015,-0.0321,0.0209,0.0713,0.1291,0.1386,0.1368,0.1415,0.1369,0.1425,0.116,0.1144,0.143,0.143,0.143,0.143,0.143,0.143,-0.0589,-0.0678,-0.0743,-0.0899,-0.098,-0.1063,-0.1105,-0.1132,-0.1055,-0.0757,-0.0351,-0.0027,0.0733,0.1246,0.1615,0.1638,0.1706,0.168,0.1742,0.1508,0.1473,0.144,0.1427,0.1768,0.1769,0.2012,0.2014,0.2016]}],[{"header":{"parameterUnit":"m.s-1","parameterCategory":2,"la1":30.2991,"la2":30.254,"lo1":-89.0895,"lo2":-89.0444,"dy":0.0017,"dx":0.0017,"nx":28,"ny":28,"refTime":"2024-07-08T21:00:00:Z","depth":"2","parameterNumber":2,"parameterNumberName":"U-component_of_CURRENTS"},"data":[0,0,0,0,0,0,0,0,0,0,0,0,0,0,0,0,0,0,0,0,0,0,0,0,0,0,0,0,0,0,0,0,0,0,0,0,0,0,0,0,0,0,0,0,0,0,0,0,0,0,0,0,0,0,0,0,0,0,-0.1841,-0.1839,0,-0.1852,-0.1854,-0.1856,-0.1906,-0.1906,-0.1905,-0.1904,-0.2153,-0.216,-0.2167,0,0,0,0,0,0,0,0,0,0,0,0,0,-0.1977,-0.1975,-0.1841,-0.1839,-0.1837,-0.1852,-0.1854,-0.1856,-0.1907,-0.1906,-0.1905,-0.1904,-0.215,-0.2159,-0.2168,0,0,0,0,0,0,0,0,0,0,0,0,0,-0.1966,-0.1975,-0.1841,-0.1849,-0.1848,-0.1852,-0.1854,-0.1857,-0.1907,-0.1906,-0.1905,-0.1903,-0.2148,-0.2158,-0.2169,-0.2259,0,0,-0.2203,-0.2207,0,0,0,0,0,0,0,0,-0.1966,-0.1964,-0.1849,-0.1848,-0.1847,-0.1858,-0.1992,-0.1996,-0.1907,-0.1907,-0.1904,-0.1903,-0.2064,-0.2081,-0.2113,-0.2271,-0.2282,-0.2204,-0.221,-0.2215,-0.2218,0,0,0,0,0,0,0,-0.1967,-0.1964,-0.1867,-0.1847,-0.1845,-0.1889,-0.1888,-0.1994,-0.2012,-0.1907,-0.1905,-0.1873,-0.2067,-0.2102,-0.2119,-0.2285,-0.2203,-0.2213,-0.222,-0.2224,-0.2394,-0.2392,0,0,0,0,0,0,-0.1918,-0.1964,-0.1866,-0.1865,-0.1881,-0.1885,-0.1885,-0.1873,-0.2006,-0.2017,-0.1874,-0.1875,-0.2084,-0.2106,-0.2128,-0.2175,-0.2215,-0.2225,-0.2231,-0.2396,-0.2393,-0.2391,0,0,0,0,0,0,-0.1922,-0.191,-0.1865,-0.1897,-0.1891,-0.1881,-0.187,-0.1873,-0.1909,-0.1974,-0.1994,-0.1902,-0.2084,-0.2113,-0.2214,-0.2188,-0.223,-0.224,-0.2398,-0.2395,-0.2392,-0.2314,0,0,0,0,0,0,-0.1926,-0.1913,-0.1931,-0.1894,-0.1887,-0.1857,-0.1868,-0.1874,-0.188,-0.1883,-0.2006,-0.2027,-0.2085,-0.2197,-0.2225,-0.2204,-0.2249,-0.2401,-0.2397,-0.2393,-0.2319,-0.2309,-0.23,0,0,0,0,0,-0.1931,-0.1951,-0.1933,-0.1922,-0.1899,-0.1854,-0.1859,-0.1862,-0.1882,-0.1896,-0.1976,-0.2023,-0.2189,-0.2208,-0.224,-0.2221,-0.2403,-0.2398,-0.2394,-0.2324,-0.2311,-0.23,0,0,0,0,0,0,-0.2013,-0.1954,-0.1935,-0.1934,-0.1884,-0.1854,-0.1877,-0.1869,-0.1945,-0.1966,-0.2048,-0.2076,-0.2141,-0.2193,-0.221,-0.2246,-0.2285,-0.2286,-0.222,-0.2209,-0.2199,-0.2178,-0.2258,0,0,0,0,0,-0.2032,-0.2047,-0.1961,-0.1964,-0.1939,-0.1915,-0.1912,-0.1892,-0.1919,-0.1952,-0.2021,-0.2089,-0.2148,-0.219,-0.2257,-0.2319,-0.2337,-0.2306,-0.2296,-0.2287,-0.2286,-0.2294,-0.2285,-0.2376,-0.2376,-0.2376,0,0,-0.2065,-0.2032,-0.2042,-0.1985,-0.1966,-0.1919,-0.1918,-0.1896,-0.1864,-0.1974,-0.2017,-0.2085,-0.2159,-0.2202,-0.2231,-0.2246,-0.2263,-0.2282,-0.2275,-0.2277,-0.2288,-0.228,-0.2272,-0.2373,-0.2373,-0.2374,0,0,-0.2105,-0.2101,-0.2109,-0.2062,-0.1993,-0.1956,-0.194,-0.19,-0.19,-0.1925,-0.1981,-0.2025,-0.2131,-0.2153,-0.2184,-0.2164,-0.2219,-0.2177,-0.2119,-0.2126,-0.2119,-0.2113,-0.2096,-0.209,-0.2163,-0.2162,-0.2162,0,-0.2163,-0.2121,-0.2103,-0.2066,-0.2021,-0.1963,-0.1918,-0.1902,-0.19,-0.1916,-0.1919,-0.2033,-0.2088,-0.213,-0.2099,-0.2142,-0.216,-0.2166,-0.2115,-0.211,-0.2106,-0.209,-0.2084,-0.2158,-0.2159,-0.2159,-0.2159,0,-0.2161,-0.2132,-0.2127,-0.2059,-0.2021,-0.1973,-0.189,-0.1883,-0.1868,-0.1855,-0.1892,-0.1948,-0.2014,-0.2007,-0.2056,-0.2048,-0.2074,-0.2112,-0.215,-0.2092,-0.2078,-0.2073,-0.2152,-0.2153,-0.2155,-0.2156,0,0,-0.2237,-0.2157,-0.2143,-0.2101,-0.2003,-0.196,-0.1914,-0.1856,-0.1852,-0.1835,-0.1851,-0.1879,-0.192,-0.1952,-0.1998,-0.1979,-0.1941,-0.2029,-0.2031,-0.202,-0.1952,-0.1832,-0.1815,-0.1991,-0.199,-0.199,-0.1944,0,-0.2228,-0.2177,-0.2126,-0.2046,-0.199,-0.1932,-0.1889,-0.1844,-0.1831,-0.1842,-0.1849,-0.1891,-0.1891,-0.1934,-0.1913,-0.1981,-0.1931,-0.1949,-0.2003,-0.2003,-0.1912,-0.1806,-0.1674,-0.1611,-0.194,-0.1939,-0.1939,0,-0.2176,-0.2154,-0.2095,-0.2015,-0.199,-0.1944,-0.1885,-0.1836,-0.1831,-0.1837,-0.1864,-0.1908,-0.1916,-0.1905,-0.1913,-0.1942,-0.1922,-0.1923,-0.1923,-0.1839,-0.1874,-0.1727,-0.1591,-0.1931,-0.1932,-0.1932,-0.1933,0,-0.2157,-0.2097,-0.2059,-0.2026,-0.1947,-0.1929,-0.1884,-0.1853,-0.1808,-0.1849,-0.1846,-0.1902,-0.1908,-0.1918,-0.1905,-0.1937,-0.1887,-0.1942,-0.1787,-0.1779,-0.1686,-0.1669,-0.1879,-0.1879,-0.188,-0.188,-0.188,0,-0.209,-0.204,-0.2059,-0.202,-0.1973,-0.1926,-0.1881,-0.1852,-0.1826,-0.1766,-0.1845,-0.1805,-0.1909,-0.19,-0.1905,-0.1813,-0.1881,-0.1743,-0.1747,-0.1648,-0.1629,-0.1941,-0.1948,-0.1878,-0.1878,-0.1879,-0.1879,0,-0.197,-0.2,-0.1943,-0.1938,-0.194,-0.1885,-0.1828,-0.1773,-0.1779,-0.1706,-0.1712,-0.1741,-0.1733,-0.1784,-0.1802,-0.1768,-0.1733,-0.1664,-0.1521,-0.1506,-0.1627,-0.1632,-0.1524,-0.1519,-0.1515,-0.1511,-0.1509,0,-0.1884,-0.1857,-0.1879,-0.1845,-0.1826,-0.1786,-0.1724,-0.1727,-0.1655,-0.1618,-0.1545,-0.1569,-0.1516,-0.1505,-0.1499,-0.1477,-0.1563,-0.1314,-0.1321,-0.1569,-0.1586,-0.1596,-0.1606,-0.1168,-0.1163,-0.1158,-0.1155,0,-0.1706,-0.1738,-0.1701,-0.1684,-0.164,-0.1582,-0.1515,-0.1466,-0.1429,-0.1397,-0.131,-0.1297,-0.127,-0.1203,-0.1179,-0.1154,-0.1334,-0.1217,-0.1516,-0.1267,-0.1226,-0.1246,-0.1268,-0.1115,-0.1119,-0.1122,-0.1124,-0.1126,-0.1569,-0.1517,-0.1527,-0.1474,-0.1437,-0.1354,-0.1278,-0.1212,-0.1128,-0.1017,-0.1079,-0.1012,-0.1034,-0.0929,-0.0887,-0.089,-0.0997,-0.0983,-0.1001,-0.1022,-0.0977,-0.093,-0.0754,-0.0755,-0.0757,-0.0758,-0.076,0,-0.1407,-0.1382,-0.1313,-0.1277,-0.1183,-0.1236,-0.1108,-0.1,-0.0885,-0.081,-0.0772,-0.0697,-0.0623,-0.0665,-0.0584,-0.0574,-0.0623,-0.0569,-0.0638,-0.0675,-0.0708,-0.0653,-0.0341,-0.034,-0.0339,-0.0338,0,0,-0.132,-0.1233,-0.1213,-0.1065,-0.1034,-0.0902,-0.0823,-0.0678,-0.0586,-0.0469,-0.0445,-0.05,-0.0562,-0.0424,-0.0411,-0.035,-0.0509,-0.033,-0.0657,-0.0767,-0.08,-0.0928,-0.0879,0,0,0,0,0]},{"header":{"parameterUnit":"m.s-1","parameterCategory":2,"la1":30.2991,"la2":30.254,"lo1":-89.0895,"lo2":-89.0444,"dy":0.0017,"dx":0.0017,"nx":28,"ny":28,"refTime":"2024-07-08T21:00:00:Z","depth":"2","parameterNumber":3,"parameterNumberName":"V-component_of_CURRENTS"},"data":[0,0,0,0,0,0,0,0,0,0,0,0,0,0,0,0,0,0,0,0,0,0,0,0,0,0,0,0,0,0,0,0,0,0,0,0,0,0,0,0,0,0,0,0,0,0,0,0,0,0,0,0,0,0,0,0,0,0,-0.0174,-0.0174,0,-0.0089,-0.0087,-0.0085,0.0028,0.0028,0.0029,0.0029,0.0463,0.0474,0.0485,0,0,0,0,0,0,0,0,0,0,0,0,0,0.002,0.0016,-0.0174,-0.0174,-0.0174,-0.009,-0.0087,-0.0084,0.0028,0.0028,0.0029,0.0029,0.0459,0.0472,0.0486,0,0,0,0,0,0,0,0,0,0,0,0,0,0.0018,0.0014,-0.0174,-0.012,-0.0116,-0.009,-0.0087,-0.0083,0.0028,0.0028,0.0029,0.003,0.0455,0.0471,0.0488,0.0579,0,0,0.0539,0.0546,0,0,0,0,0,0,0,0,0.0017,0.0012,-0.0128,-0.0124,-0.0119,-0.0055,0.0139,0.015,0.0028,-0.001,0.0029,0.003,0.0311,0.034,0.0372,0.0599,0.0618,0.054,0.055,0.0558,0.0562,0,0,0,0,0,0,0,0.0017,0.0011,-0.0124,-0.0128,-0.0123,-0.0013,-0.0013,0.0143,0.0166,-0.0006,-0.0002,-0.0018,0.0319,0.0355,0.0384,0.0624,0.054,0.0555,0.0565,0.0572,0.0959,0.0959,0,0,0,0,0,0,-0.0041,0.0009,-0.0127,-0.0123,-0.0066,-0.002,-0.0019,-0.0063,0.0156,0.0183,-0.0019,-0.0014,0.0327,0.0364,0.04,0.0518,0.0557,0.0573,0.0583,0.0959,0.0959,0.0959,0,0,0,0,0,0,-0.0037,-0.0055,-0.013,-0.0065,-0.0069,-0.0027,-0.0075,-0.0062,-0.0027,0.014,0.0177,-0.0001,0.0329,0.0377,0.0547,0.0536,0.0581,0.0596,0.0959,0.0959,0.0959,0.0758,0,0,0,0,0,0,-0.0033,-0.0055,-0.0083,-0.0071,-0.0076,-0.0129,-0.0077,-0.0061,-0.0047,-0.0038,0.0168,0.0208,0.0333,0.0521,0.0564,0.056,0.0609,0.0958,0.0959,0.0959,0.0765,0.0752,0.0741,0,0,0,0,0,-0.0026,-0.0076,-0.0085,-0.0101,-0.0126,-0.0131,-0.0121,-0.0075,-0.0047,-0.0037,0.0113,0.0202,0.0553,0.0536,0.0586,0.0586,0.0958,0.0959,0.0959,0.077,0.0754,0.0741,0,0,0,0,0,0,-0.0004,-0.0071,-0.008,-0.0148,-0.0151,-0.0119,-0.0112,-0.0086,0.0034,0.0061,0.023,0.0282,0.0428,0.0539,0.0514,0.0698,0.0761,0.0772,0.06,0.0587,0.0575,0.0511,0.0623,0,0,0,0,0,-0.0024,-0.0071,-0.0112,-0.0156,-0.0174,-0.0143,-0.0134,-0.0111,-0.0027,0.0023,0.0159,0.0318,0.0468,0.0549,0.0704,0.0815,0.0866,0.0842,0.0829,0.0818,0.08,0.085,0.0839,0.0961,0.0961,0.0961,0,0,-0.0019,-0.0069,-0.0088,-0.0152,-0.0147,-0.016,-0.0131,-0.0135,-0.0113,0.0061,0.0166,0.0301,0.0494,0.0615,0.0686,0.0705,0.0808,0.0819,0.0807,0.0796,0.0849,0.0836,0.0825,0.0962,0.0962,0.0961,0,0,-0.0032,-0.0094,-0.0131,-0.0152,-0.0184,-0.0168,-0.0182,-0.0159,-0.012,-0.0025,0.0109,0.0209,0.0448,0.0544,0.0636,0.065,0.0755,0.0717,0.0598,0.0645,0.0634,0.0625,0.0647,0.0642,0.0695,0.0694,0.0694,0,-0.0015,-0.0096,-0.0132,-0.0176,-0.0193,-0.0183,-0.0206,-0.0169,-0.0079,-0.004,-0.0011,0.0264,0.0397,0.0533,0.0521,0.0616,0.0667,0.0629,0.0622,0.0615,0.0609,0.0635,0.0632,0.0685,0.0686,0.0687,0.0688,0,-0.006,-0.0116,-0.0143,-0.0198,-0.021,-0.0234,-0.0228,-0.0199,-0.016,-0.0118,0.0001,0.0147,0.0297,0.0341,0.044,0.0478,0.0535,0.0605,0.0638,0.0583,0.0616,0.0615,0.0671,0.0674,0.0677,0.068,0,0,-0.0066,-0.015,-0.0167,-0.0195,-0.0232,-0.025,-0.0227,-0.0208,-0.0184,-0.0121,-0.0078,0.0079,0.0121,0.0223,0.0336,0.0346,0.0317,0.0437,0.0444,0.0422,0.0414,0.0431,0.0433,0.0396,0.0396,0.0395,0.0442,0,-0.0088,-0.0163,-0.0198,-0.0243,-0.0284,-0.0278,-0.0258,-0.0232,-0.0186,-0.0134,-0.0056,0.0047,0.0092,0.0154,0.0165,0.0331,0.0314,0.0297,0.0505,0.051,0.0501,0.0432,0.0412,0.0452,0.0442,0.0442,0.0443,0,-0.015,-0.0189,-0.0241,-0.0284,-0.0302,-0.0309,-0.0296,-0.0276,-0.0208,-0.0171,-0.0113,-0.0024,0.0037,0.0063,0.0195,0.0197,0.0262,0.0336,0.0342,0.0427,0.0527,0.0518,0.0453,0.0443,0.0443,0.0443,0.0443,0,-0.0173,-0.0236,-0.0272,-0.0294,-0.0324,-0.0327,-0.0324,-0.0282,-0.0263,-0.0194,-0.0168,-0.0076,-0.0007,0.0071,0.0203,0.0214,0.0335,0.0385,0.0439,0.0442,0.0498,0.0506,0.041,0.041,0.041,0.041,0.041,0,-0.0227,-0.0263,-0.0285,-0.0319,-0.0343,-0.0355,-0.0358,-0.0336,-0.0294,-0.0268,-0.0194,-0.0143,-0.0002,0.0096,0.0185,0.0313,0.0322,0.0391,0.0448,0.0428,0.0429,0.0499,0.0509,0.0412,0.0411,0.0411,0.0411,0,-0.0271,-0.0289,-0.0338,-0.0363,-0.0368,-0.0391,-0.04,-0.039,-0.035,-0.0312,-0.0294,-0.0176,-0.0039,0.0085,0.0249,0.031,0.0423,0.0454,0.0404,0.0451,0.0493,0.0492,0.0509,0.051,0.0511,0.0511,0.0512,0,-0.0288,-0.0317,-0.0371,-0.0395,-0.0412,-0.0432,-0.0437,-0.0419,-0.0404,-0.0324,-0.0301,-0.0171,-0.0052,0.0175,0.0307,0.0447,0.045,0.0487,0.0479,0.0445,0.05,0.0498,0.0497,0.047,0.047,0.047,0.047,0,-0.0298,-0.0324,-0.0364,-0.0417,-0.0444,-0.0479,-0.0482,-0.0479,-0.0438,-0.0382,-0.0275,-0.0175,0.003,0.0214,0.0379,0.0445,0.0465,0.0492,0.0494,0.0446,0.0413,0.0465,0.0464,0.0471,0.0471,0.0471,0.0471,0.0471,-0.0275,-0.0312,-0.0356,-0.041,-0.0459,-0.0496,-0.0489,-0.0467,-0.0423,-0.0268,-0.0207,-0.0009,0.0069,0.0354,0.0428,0.0494,0.0497,0.0513,0.0511,0.051,0.0495,0.0464,0.0528,0.0528,0.0528,0.0529,0.0529,0,-0.022,-0.027,-0.0326,-0.0389,-0.0435,-0.0476,-0.0484,-0.0429,-0.0336,-0.0151,0.0022,0.0128,0.029,0.037,0.0482,0.0529,0.0507,0.0524,0.0492,0.0491,0.049,0.0473,0.0501,0.0502,0.0502,0.0502,0,0,-0.019,-0.0224,-0.0269,-0.032,-0.0374,-0.039,-0.0387,-0.0299,-0.0158,0.0056,0.0215,0.0393,0.0384,0.0445,0.0473,0.0528,0.0514,0.052,0.0538,0.0502,0.0502,0.0475,0.0447,0,0,0,0,0]}],[{"header":{"parameterUnit":"m.s-1","parameterCategory":2,"la1":30.2991,"la2":30.254,"lo1":-89.0895,"lo2":-89.0444,"dy":0.0017,"dx":0.0017,"nx":28,"ny":28,"refTime":"2024-07-08T21:00:00:Z","depth":"4","parameterNumber":2,"parameterNumberName":"U-component_of_CURRENTS"},"data":[0,0,0,0,0,0,0,0,0,0,0,0,0,0,0,0,0,0,0,0,0,0,0,0,0,0,0,0,0,0,0,0,0,0,0,0,0,0,0,0,0,0,0,0,0,0,0,0,0,0,0,0,0,0,0,0,0,0,-0.0949,-0.0951,0,-0.1118,-0.1119,-0.1121,-0.119,-0.119,-0.119,-0.119,-0.1181,-0.118,-0.118,0,0,0,0,0,0,0,0,0,0,0,0,0,-0.0718,-0.0722,-0.0949,-0.0951,-0.0954,-0.1117,-0.1119,-0.1121,-0.119,-0.119,-0.119,-0.119,-0.1181,-0.118,-0.118,0,0,0,0,0,0,0,0,0,0,0,0,0,-0.0842,-0.0723,-0.0949,-0.1011,-0.1018,-0.1117,-0.1119,-0.1122,-0.119,-0.119,-0.119,-0.119,-0.1181,-0.118,-0.118,-0.1178,0,0,-0.1179,-0.1179,0,0,0,0,0,0,0,0,-0.0835,-0.085,-0.0999,-0.1007,-0.1016,-0.1136,-0.1035,-0.1133,-0.119,-0.112,-0.119,-0.119,-0.1152,-0.1154,-0.1182,-0.1177,-0.1177,-0.1179,-0.1179,-0.1179,-0.1178,0,0,0,0,0,0,0,-0.0826,-0.0843,-0.1011,-0.1002,-0.1012,-0.1042,-0.1059,-0.1055,-0.1127,-0.1126,-0.1133,-0.1158,-0.1155,-0.1183,-0.1182,-0.1177,-0.1179,-0.1179,-0.1178,-0.1178,-0.1172,-0.1172,0,0,0,0,0,0,-0.0813,-0.0835,-0.1006,-0.1017,-0.0928,-0.1046,-0.1065,-0.1094,-0.1132,-0.114,-0.1158,-0.1161,-0.1183,-0.1183,-0.1182,-0.1198,-0.1179,-0.1178,-0.1178,-0.1172,-0.1172,-0.1172,0,0,0,0,0,0,-0.0807,-0.0826,-0.1,-0.0933,-0.0957,-0.105,-0.1083,-0.1098,-0.1151,-0.1159,-0.1163,-0.1199,-0.1183,-0.1182,-0.1185,-0.1197,-0.1178,-0.1178,-0.1172,-0.1172,-0.1172,-0.1218,0,0,0,0,0,0,-0.08,-0.0823,-0.0849,-0.0932,-0.0961,-0.1067,-0.1084,-0.1101,-0.1167,-0.1173,-0.1194,-0.1193,-0.1183,-0.1186,-0.1185,-0.1196,-0.1177,-0.1172,-0.1172,-0.1172,-0.1216,-0.1219,-0.1222,0,0,0,0,0,-0.0791,-0.0828,-0.085,-0.0871,-0.0991,-0.1068,-0.1085,-0.1148,-0.1169,-0.1195,-0.1201,-0.1193,-0.1186,-0.1186,-0.1185,-0.1196,-0.1172,-0.1172,-0.1172,-0.1215,-0.1219,-0.1222,0,0,0,0,0,0,-0.0744,-0.0842,-0.0866,-0.0932,-0.0997,-0.1081,-0.1114,-0.1162,-0.1196,-0.1196,-0.1198,-0.1196,-0.1196,-0.119,-0.1191,-0.1192,-0.1176,-0.1176,-0.1209,-0.1212,-0.1215,-0.1229,-0.1177,0,0,0,0,0,-0.0745,-0.0782,-0.0883,-0.0922,-0.0961,-0.104,-0.1084,-0.1132,-0.1173,-0.1192,-0.1207,-0.1206,-0.1195,-0.12,-0.1186,-0.1198,-0.1187,-0.1201,-0.1204,-0.1207,-0.1215,-0.1212,-0.1216,-0.1173,-0.1173,-0.1173,0,0,-0.0725,-0.0788,-0.0805,-0.0912,-0.0962,-0.1034,-0.1065,-0.1136,-0.1188,-0.1179,-0.123,-0.1214,-0.1196,-0.12,-0.1201,-0.1201,-0.1211,-0.1207,-0.121,-0.1217,-0.1213,-0.1217,-0.1221,-0.1173,-0.1173,-0.1173,0,0,-0.0699,-0.077,-0.0794,-0.0862,-0.0959,-0.103,-0.1057,-0.1156,-0.1192,-0.1241,-0.1231,-0.1228,-0.1238,-0.1226,-0.1218,-0.1231,-0.1218,-0.1225,-0.1266,-0.1263,-0.1267,-0.127,-0.1256,-0.1258,-0.1239,-0.1239,-0.1239,0,-0.0672,-0.073,-0.081,-0.0866,-0.0937,-0.1031,-0.1098,-0.1151,-0.1235,-0.1254,-0.1257,-0.1267,-0.125,-0.1249,-0.1252,-0.1239,-0.1234,-0.1256,-0.1269,-0.1272,-0.1274,-0.1259,-0.126,-0.1241,-0.1241,-0.124,-0.124,0,-0.0685,-0.0732,-0.0753,-0.0862,-0.0956,-0.1016,-0.1133,-0.1195,-0.1256,-0.1298,-0.1317,-0.1301,-0.1306,-0.1298,-0.1281,-0.129,-0.1276,-0.1265,-0.1264,-0.1282,-0.1264,-0.1264,-0.1244,-0.1243,-0.1243,-0.1242,0,0,-0.0591,-0.0733,-0.0728,-0.0786,-0.0967,-0.1037,-0.1143,-0.1251,-0.1298,-0.1348,-0.1383,-0.1372,-0.1365,-0.1355,-0.1332,-0.1338,-0.1343,-0.132,-0.1318,-0.1313,-0.1334,-0.1227,-0.1217,-0.134,-0.1341,-0.1341,-0.1311,0,-0.0562,-0.0632,-0.075,-0.0846,-0.0909,-0.1068,-0.1167,-0.1278,-0.1345,-0.1391,-0.1387,-0.1394,-0.1386,-0.1378,-0.1385,-0.1339,-0.1348,-0.1352,-0.131,-0.1309,-0.1219,-0.1216,-0.1343,-0.1312,-0.1312,-0.1312,-0.1312,0,-0.0534,-0.059,-0.0676,-0.0847,-0.0897,-0.1006,-0.1193,-0.1284,-0.138,-0.1414,-0.1439,-0.1433,-0.143,-0.1419,-0.1397,-0.1401,-0.1379,-0.1357,-0.1355,-0.1241,-0.1203,-0.129,-0.1313,-0.1313,-0.1313,-0.1313,-0.1313,0,-0.0411,-0.0539,-0.0607,-0.0668,-0.0888,-0.0986,-0.1122,-0.1281,-0.1342,-0.1415,-0.1433,-0.1451,-0.143,-0.143,-0.1388,-0.1396,-0.1356,-0.1354,-0.1245,-0.1237,-0.1325,-0.1322,-0.1354,-0.1354,-0.1354,-0.1354,-0.1354,0,-0.035,-0.0395,-0.0555,-0.0592,-0.0703,-0.0918,-0.1032,-0.1159,-0.1301,-0.1338,-0.1418,-0.1413,-0.1433,-0.1412,-0.1395,-0.1307,-0.1362,-0.1247,-0.1221,-0.1342,-0.1341,-0.1325,-0.1322,-0.1353,-0.1353,-0.1354,-0.1354,0,-0.0235,-0.0317,-0.0388,-0.058,-0.0647,-0.0736,-0.0971,-0.103,-0.12,-0.1248,-0.1267,-0.1361,-0.133,-0.1341,-0.1313,-0.1279,-0.1231,-0.1195,-0.1317,-0.13,-0.1117,-0.1117,-0.1067,-0.1063,-0.1059,-0.1057,-0.1054,0,-0.0213,-0.0224,-0.0332,-0.0362,-0.0464,-0.0607,-0.0698,-0.0929,-0.1007,-0.1189,-0.1192,-0.1219,-0.1242,-0.1121,-0.1164,-0.1128,-0.112,-0.1109,-0.1125,-0.1107,-0.1088,-0.1093,-0.1097,-0.1049,-0.1048,-0.1047,-0.1046,0,-0.0174,-0.018,-0.0223,-0.0244,-0.0325,-0.0407,-0.0575,-0.0627,-0.0878,-0.0984,-0.1055,-0.107,-0.1031,-0.1025,-0.1004,-0.0989,-0.1124,-0.1073,-0.108,-0.1096,-0.1085,-0.107,-0.1078,-0.1034,-0.1036,-0.1037,-0.1038,0,-0.0141,-0.0125,-0.0137,-0.0174,-0.0221,-0.0279,-0.0357,-0.0496,-0.0613,-0.0869,-0.0854,-0.0918,-0.0984,-0.095,-0.0933,-0.0903,-0.0895,-0.0886,-0.0903,-0.0917,-0.0886,-0.0851,-0.0699,0,0,0,0,0,-0.0126,-0.0096,-0.0091,-0.0121,-0.0144,-0.0193,-0.0331,-0.0427,-0.0631,-0.0632,-0.0778,-0.075,-0.0761,-0.0805,-0.0739,-0.0861,-0.0892,-0.0785,-0.0889,-0.0968,-0.0982,-0.0961,0,0,0,0,0,0,-0.0113,-0.009,-0.0069,-0.0081,-0.0094,-0.0145,-0.0224,-0.0341,-0.0395,-0.0572,-0.0564,-0.0683,-0.068,-0.0753,-0.0708,-0.0721,-0.0768,-0.0835,-0.0833,-0.096,-0.0973,-0.0984,-0.0967,0,0,0,0,0]},{"header":{"parameterUnit":"m.s-1","parameterCategory":2,"la1":30.2991,"la2":30.254,"lo1":-89.0895,"lo2":-89.0444,"dy":0.0017,"dx":0.0017,"nx":28,"ny":28,"refTime":"2024-07-08T21:00:00:Z","depth":"4","parameterNumber":3,"parameterNumberName":"V-component_of_CURRENTS"},"data":[0,0,0,0,0,0,0,0,0,0,0,0,0,0,0,0,0,0,0,0,0,0,0,0,0,0,0,0,0,0,0,0,0,0,0,0,0,0,0,0,0,0,0,0,0,0,0,0,0,0,0,0,0,0,0,0,0,0,-0.0168,-0.0168,0,-0.0135,-0.0134,-0.0134,-0.0075,-0.0074,-0.0074,-0.0073,-0.0067,-0.0067,-0.0068,0,0,0,0,0,0,0,0,0,0,0,0,0,-0.0126,-0.0127,-0.0168,-0.0168,-0.0168,-0.0135,-0.0134,-0.0133,-0.0075,-0.0074,-0.0073,-0.0073,-0.0067,-0.0067,-0.0068,0,0,0,0,0,0,0,0,0,0,0,0,0,-0.012,-0.0127,-0.0168,-0.0138,-0.0135,-0.0135,-0.0134,-0.0133,-0.0076,-0.0074,-0.0073,-0.0072,-0.0066,-0.0067,-0.0068,-0.0096,0,0,-0.007,-0.0071,0,0,0,0,0,0,0,0,-0.012,-0.0121,-0.0142,-0.014,-0.0137,-0.0111,-0.0117,-0.0123,-0.0076,-0.0094,-0.0073,-0.0072,-0.0088,-0.0087,-0.0077,-0.0095,-0.0095,-0.007,-0.0071,-0.0071,-0.0072,0,0,0,0,0,0,0,-0.0121,-0.0122,-0.0151,-0.0143,-0.0139,-0.0107,-0.0105,-0.0117,-0.0095,-0.0092,-0.0089,-0.0092,-0.0085,-0.0076,-0.0077,-0.0095,-0.007,-0.0071,-0.0072,-0.0072,-0.012,-0.012,0,0,0,0,0,0,-0.0137,-0.0123,-0.0152,-0.0151,-0.013,-0.0109,-0.0107,-0.0118,-0.0094,-0.0091,-0.0093,-0.0089,-0.0075,-0.0076,-0.0076,-0.0069,-0.0071,-0.0072,-0.0073,-0.0119,-0.012,-0.0121,0,0,0,0,0,0,-0.0137,-0.0141,-0.0154,-0.0138,-0.0138,-0.0112,-0.0124,-0.0118,-0.0105,-0.0095,-0.0091,-0.0086,-0.0075,-0.0075,-0.0078,-0.007,-0.0072,-0.0073,-0.0118,-0.0119,-0.012,-0.0081,0,0,0,0,0,0,-0.0136,-0.0141,-0.0151,-0.014,-0.014,-0.0153,-0.0125,-0.0118,-0.011,-0.0105,-0.0089,-0.0087,-0.0074,-0.0077,-0.0079,-0.0071,-0.0074,-0.0117,-0.0118,-0.012,-0.0081,-0.008,-0.008,0,0,0,0,0,-0.0134,-0.0147,-0.0152,-0.0155,-0.0156,-0.0154,-0.015,-0.0125,-0.0111,-0.0108,-0.0092,-0.0087,-0.0088,-0.0078,-0.008,-0.0073,-0.0116,-0.0118,-0.012,-0.0081,-0.0081,-0.008,0,0,0,0,0,0,-0.013,-0.0143,-0.0147,-0.0163,-0.0163,-0.0145,-0.0142,-0.0131,-0.0115,-0.011,-0.0095,-0.0092,-0.0095,-0.01,-0.009,-0.0095,-0.0103,-0.0105,-0.0073,-0.0073,-0.0072,-0.0056,-0.0074,0,0,0,0,0,-0.014,-0.0152,-0.016,-0.0172,-0.0176,-0.0163,-0.0159,-0.0146,-0.0134,-0.0125,-0.0111,-0.0106,-0.0107,-0.0101,-0.0108,-0.011,-0.0093,-0.0111,-0.011,-0.0109,-0.0101,-0.006,-0.0053,-0.0126,-0.0126,-0.0126,0,0,-0.014,-0.015,-0.0157,-0.0172,-0.0168,-0.0169,-0.0155,-0.0153,-0.0139,-0.0131,-0.0107,-0.011,-0.0112,-0.0106,-0.0108,-0.0104,-0.0084,-0.0112,-0.011,-0.0103,-0.006,-0.0053,-0.0046,-0.0128,-0.0127,-0.0127,0,0,-0.0151,-0.0161,-0.0179,-0.0178,-0.0185,-0.0173,-0.0177,-0.0165,-0.0145,-0.0137,-0.0125,-0.0114,-0.0122,-0.01,-0.0097,-0.0104,-0.009,-0.0123,-0.0092,-0.0051,-0.0043,-0.0036,-0.0012,-0.0003,-0.0111,-0.0111,-0.0111,0,-0.0158,-0.018,-0.0181,-0.0193,-0.0187,-0.0178,-0.0182,-0.0163,-0.0147,-0.0131,-0.0129,-0.0112,-0.0111,-0.0086,-0.0083,-0.0097,-0.0082,-0.0086,-0.0045,-0.0038,-0.0032,-0.0008,0.0001,-0.0109,-0.011,-0.011,-0.011,0,-0.0177,-0.0193,-0.02,-0.0211,-0.0199,-0.0204,-0.0182,-0.0169,-0.0149,-0.0126,-0.0104,-0.009,-0.0077,-0.0077,-0.0078,-0.004,-0.0048,-0.0052,-0.0036,-0.0021,0.0001,0.001,-0.0107,-0.0108,-0.0108,-0.0109,0,0,-0.0201,-0.0217,-0.022,-0.0228,-0.0209,-0.0207,-0.0177,-0.0154,-0.0137,-0.0106,-0.0075,-0.0055,-0.0044,-0.0041,-0.0037,0.0008,0.0065,-0.0001,0.0,0.0043,0.0146,0.0117,0.0124,0.0073,0.0075,0.0076,0.0143,0,-0.0223,-0.0262,-0.0243,-0.0248,-0.0263,-0.0225,-0.0195,-0.0162,-0.0133,-0.0101,-0.0058,-0.0041,-0.0031,-0.0029,0.0021,0.0043,0.0091,0.0047,0.0108,0.0109,0.0099,0.0134,0.0082,0.0149,0.0152,0.0153,0.0154,0,-0.0239,-0.0271,-0.0297,-0.0281,-0.0279,-0.0269,-0.0225,-0.0194,-0.0134,-0.0111,-0.0065,-0.0042,0.002,0.002,0.0114,0.0083,0.0118,0.0148,0.0152,0.012,0.0097,0.013,0.0171,0.0169,0.0168,0.0167,0.0166,0,-0.026,-0.0289,-0.0316,-0.0314,-0.0302,-0.0291,-0.0265,-0.0207,-0.0175,-0.0121,-0.0104,-0.0026,0.0003,0.0076,0.0135,0.0126,0.0236,0.0229,0.0244,0.0241,0.0232,0.0224,0.0308,0.0308,0.0308,0.0308,0.0307,0,-0.0271,-0.0291,-0.0343,-0.0357,-0.037,-0.033,-0.0305,-0.0274,-0.0215,-0.0172,-0.0118,-0.0077,0.0019,0.0089,0.0147,0.0223,0.025,0.0261,0.0265,0.0242,0.0235,0.0238,0.0229,0.031,0.0309,0.0309,0.0309,0,-0.0257,-0.0303,-0.0337,-0.0368,-0.0382,-0.0378,-0.0338,-0.0309,-0.0268,-0.0213,-0.0197,-0.0106,-0.0015,0.0074,0.0189,0.0226,0.0304,0.0322,0.0287,0.0285,0.0279,0.0271,0.0354,0.0353,0.0353,0.0353,0.0353,0,-0.0253,-0.0282,-0.035,-0.0377,-0.0393,-0.0396,-0.0381,-0.034,-0.0299,-0.0224,-0.0191,-0.0109,-0.0043,0.011,0.0189,0.0302,0.031,0.0343,0.0324,0.0292,0.0288,0.028,0.0273,0.0352,0.0352,0.0352,0.0352,0,-0.024,-0.0271,-0.0297,-0.0364,-0.0387,-0.0382,-0.0364,-0.035,-0.0278,-0.027,-0.0169,-0.0092,0.0006,0.0119,0.0197,0.0277,0.032,0.0341,0.0342,0.0324,0.0292,0.0286,0.0279,0.0351,0.0351,0.0351,0.0351,0,-0.0223,-0.0239,-0.0289,-0.033,-0.0359,-0.0348,-0.0342,-0.0291,-0.0254,-0.019,-0.0159,-0.0059,-0.0,0.0106,0.0184,0.0252,0.0265,0.0282,0.0286,0.0288,0.0239,0.0186,0.0232,0,0,0,0,0,-0.0207,-0.0226,-0.0255,-0.0298,-0.0309,-0.0328,-0.0313,-0.0296,-0.0274,-0.0201,-0.0175,-0.008,0.0039,0.0096,0.0162,0.0168,0.0266,0.0244,0.0285,0.0347,0.0348,0.0298,0,0,0,0,0,0,-0.0209,-0.0233,-0.0245,-0.025,-0.0271,-0.027,-0.0263,-0.0247,-0.0196,-0.0178,-0.0104,-0.0087,0.0037,-0.0,0.0156,0.0174,0.0204,0.0294,0.0295,0.0346,0.0347,0.0348,0.0297,0,0,0,0,0]}]]